Temp
7 7 8 8 8 8 8 6 6 4 7 8 5 10 12 16 17 17 18 18 19 21 21 21 21 21 19 20 20 19 19 19 18 20 22 21 20 19 18 15 17 17 17 18
7 7 7 8 8 8 8 6 4 5 5 8 8 9 13 15 17 16 16 17 19 20 20 19 20 18 17 18 18 17 18 17 16 18 20 20 19 19 18 19 18 17 15 17
6 7 7 8 8 8 8 7 6 4 3 4 8 8 10 12 15 16 17 17 18 18 18 19 18 17 17 17 17 13 15 17 16 16 18 16 16 17 17 16 15 16 17 18
6 6 6 6 6 8 9 8 8 8 6 6 7 8 9 12 12 13 15 15 15 17 16 17 17 17 14 16 13 15 15 13 13 15 16 16 16 16 17 17 17 15 16 17
5 5 6 6 7 8 9 6 9 10 11 8 7 7 8 9 12 12 13 13 15 16 15 15 13 16 15 15 15 14 15 12 11 11 13 14 14 15 16 17 17 17 17 17
4 4 5 6 7 8 7 7 11 11 10 10 9 8 9 9 11 10 13 13 13 13 14 15 15 14 13 15 13 13 14 12 12 11 14 14 12 14 15 16 17 17 15 17
3 4 4 5 6 7 9 9 11 10 9 9 10 11 10 8 10 9 12 11 11 10 13 13 13 13 13 13 13 14 13 13 12 11 12 10 14 17 17 17 17 18 18 19
3 4 4 5 6 7 9 8 10 9 9 11 9 9 9 10 10 8 9 10 11 13 12 9 9 10 11 11 13 13 13 12 11 9 11 13 14 16 16 16 15 18 18 18
3 4 4 5 6 7 8 6 8 10 9 10 12 11 12 10 10 10 11 11 11 11 10 8 8 9 11 12 13 14 14 13 11 11 9 9 13 16 17 17 13 17 17 16
3 3 4 4 6 7 7 6 7 9 7 10 11 11 11 12 11 9 10 9 9 10 8 8 9 9 12 11 11 11 12 11 10 10 10 11 14 15 16 12 13 14 13 14
3 3 3 4 5 6 6 5 6 8 8 9 9 10 11 11 12 10 10 8 9 8 7 8 9 9 11 11 11 12 11 11 10 10 9 9 15 15 13 13 14 13 14 15
3 3 3 4 5 5 6 6 6 7 9 8 8 9 9 10 11 11 10 10 10 9 8 9 10 10 11 11 10 13 10 11 11 12 11 13 15 14 14 13 13 13 13 12
3 3 3 4 4 5 5 6 6 7 7 8 7 7 8 8 8 9 9 10 11 10 11 9 8 8 10 9 10 11 12 13 11 11 12 13 14 15 15 14 12 14 13 13
3 3 3 3 4 4 4 6 5 6 7 6 8 9 8 8 7 8 8 9 9 9 10 8 7 7 9 8 9 10 11 11 10 10 10 12 13 14 14 14 13 13 13 13
3 3 3 3 3 3 4 4 4 5 6 5 6 8 8 8 8 7 7 8 8 8 7 7 7 8 8 8 8 8 10 10 9 9 11 11 11 12 13 12 12 12 12 12
3 3 2 2 3 3 3 1 4 4 5 5 5 9 9 9 8 8 8 8 8 8 6 7 8 9 8 6 7 9 10 10 10 9 11 11 11 11 12 12 12 12 11 12
3 3 2 2 3 3 3 4 3 4 4 3 5 7 9 9 9 8 8 8 7 7 6 5 6 7 7 6 5 8 9 10 10 11 11 10 11 11 12 12 11 10 10 9
2 2 2 2 2 2 3 3 4 3 2 3 5 7 7 8 6 5 6 5 3 4 5 6 6 7 6 4 7 8 9 9 10 10 10 10 11 11 11 10 10 7 5 7
2 1 2 2 3 4 5 3 2 2 3 4 6 6 6 5 7 5 4 5 4 6 4 6 6 5 5 7 8 9 10 10 9 10 9 7 6 9 10 10 9 8 6 10
2 3 4 3 2 2 2 1 1 1 1 2 3 8 6 7 6 5 5 5 6 5 7 8 5 6 8 9 10 10 10 10 10 8 7 6 4 5 5 8 10 13 13 9
3 4 2 2 1 1 3 3 3 4 4 5 7 7 7 9 6 6 6 5 5 6 6 6 6 7 8 9 9 9 9 10 10 10 11 11 6 8 10 11 11 10 8 6
3 3 1 2 2 3 4 5 6 6 7 8 8 8 8 7 7 5 7 6 5 6 5 5 7 7 10 10 10 10 11 10 10 11 12 12 12 12 12 10 8 4 2 0
1 2 3 4 5 4 4 5 6 7 8 8 8 6 7 6 7 6 6 6 7 7 6 8 10 10 10 10 10 9 9 8 10 10 10 10 5 4 6 3 2 1 0 -0
2 3 3 5 4 5 6 7 7 7 7 7 7 6 5 5 5 6 5 7 7 7 8 9 9 8 7 6 6 6 3 1 3 2 1 0 0 0 0 1 1 -0 -0 -1
3 4 4 5 6 6 6 6 7 7 7 6 6 6 6 5 5 5 6 6 6 8 9 8 8 7 5 5 4 2 1 1 1 0 0 -0 -0 -0 -0 -0 -0 -1 -1 -1
4 4 4 5 4 4 3 4 5 7 4 4 5 5 5 6 7 6 6 8 8 8 7 8 7 5 3 3 1 0 0 0 0 -0 -0 -0 -0 -1 -1 -1 -1 -2 -2 -2
4 3 3 3 4 4 3 4 6 7 4 5 6 6 7 8 7 7 9 8 7 6 7 5 5 4 2 1 -0 -1 -0 0 0 -0 -1 -1 -2 -2 -2 -2 -2 -2 -2 -3
Height
667 678 677 684 694 706 714 723 729 734 732 735 742 734 726 718 720 722 721 724 719 714 714 715 721 720 735 734 735 747 743 748 751 744 736 741 747 759 761 781 767 763 762 748
673 679 687 694 699 706 713 725 735 737 735 735 740 737 726 721 719 726 728 726 721 713 718 724 717 732 748 747 746 751 749 759 767 756 746 743 753 753 757 751 753 758 771 752
681 686 692 697 700 707 713 722 730 742 744 745 737 740 732 727 722 722 722 724 722 723 725 719 728 738 748 748 750 761 761 758 761 763 752 763 767 763 761 766 768 758 754 748
686 691 696 700 703 708 713 722 724 727 737 742 741 740 740 726 727 730 725 731 733 728 735 731 732 739 759 751 761 759 766 776 773 768 764 766 767 762 756 758 756 765 763 751
691 696 698 701 707 712 715 724 720 716 720 733 739 739 740 741 728 731 729 734 734 731 737 738 749 739 745 752 755 762 765 776 784 781 776 774 772 758 754 753 750 748 745 741
699 702 707 709 711 713 717 721 716 713 718 721 735 735 737 742 737 744 731 735 739 742 747 744 747 752 757 754 762 764 763 771 775 773 767 766 768 755 751 747 744 744 749 736
701 705 708 707 710 713 716 718 720 721 723 725 726 722 732 745 743 748 739 744 748 762 759 758 759 759 758 758 758 761 765 766 771 773 774 786 750 740 740 740 735 731 727 723
702 704 707 710 715 719 721 724 723 724 723 715 728 734 735 742 748 754 753 753 757 756 759 770 777 773 769 763 757 759 763 767 776 780 770 756 744 739 740 738 737 728 727 722
707 709 713 716 718 721 724 728 727 723 722 720 720 725 727 735 737 747 748 758 760 758 766 774 775 768 756 750 744 747 754 759 770 767 773 772 737 737 731 730 738 729 723 727
714 716 718 722 724 727 729 732 731 729 732 727 726 727 728 732 736 750 753 765 765 763 767 774 770 765 747 749 755 755 751 756 764 762 768 754 735 738 734 744 742 734 736 733
718 721 723 726 728 730 732 735 735 735 736 736 736 735 733 734 735 746 750 762 762 769 771 768 762 761 750 744 747 746 748 754 754 757 765 763 733 733 738 737 734 739 731 728
722 725 728 730 732 733 734 736 738 737 736 739 742 742 741 741 742 742 745 750 751 758 762 757 751 752 744 744 747 738 749 744 743 743 741 734 730 728 731 739 739 733 731 737
726 728 731 734 736 737 738 740 742 743 744 744 745 744 745 746 747 749 749 746 748 751 755 760 759 756 746 746 738 734 731 731 739 739 729 731 729 726 726 728 736 734 732 729
729 732 735 737 739 740 741 743 745 745 745 744 739 740 743 745 748 750 752 751 753 754 753 757 758 758 748 747 741 738 736 737 735 738 737 733 729 726 725 727 730 729 729 726
730 733 736 738 741 743 745 746 747 748 750 747 743 741 741 742 745 748 751 753 755 755 756 752 752 750 752 746 745 737 738 733 739 733 729 732 727 727 727 727 727 727 725 721
730 734 737 740 742 745 746 748 747 748 749 749 744 733 733 736 740 744 747 749 751 752 753 750 745 744 747 747 736 729 733 731 731 730 728 728 726 727 726 725 724 723 723 721
730 735 738 741 743 746 748 747 750 749 751 753 747 733 727 731 735 741 744 745 746 749 751 748 747 743 743 740 734 730 728 725 722 721 722 722 722 719 718 718 719 722 721 721
730 735 739 742 745 748 748 749 750 752 754 754 745 730 729 732 736 743 743 746 751 749 743 739 738 737 739 734 716 720 721 719 719 719 719 717 716 716 715 716 716 720 723 715
730 735 740 744 746 746 745 747 750 752 757 749 737 730 726 735 732 740 747 745 744 736 736 731 735 730 723 705 708 708 707 707 709 709 712 715 716 710 708 708 709 707 713 708
733 738 739 741 743 744 746 749 752 753 753 753 741 725 727 730 730 734 737 739 731 726 718 717 723 714 701 699 698 699 700 702 703 710 711 713 716 712 711 705 702 696 697 706
735 736 739 740 741 744 743 740 742 738 739 733 722 722 722 721 728 729 730 728 727 719 712 718 710 699 691 689 689 690 692 695 698 699 694 690 700 696 694 693 695 698 704 709
734 735 737 739 740 737 734 727 723 724 716 711 710 714 718 721 724 728 723 722 721 712 718 715 698 689 680 681 683 683 676 685 689 689 687 687 686 688 689 693 699 706 711 715
735 735 735 733 730 730 729 723 717 713 708 711 713 719 720 723 724 723 722 717 709 709 709 694 678 680 682 684 685 686 687 688 687 687 688 689 692 691 694 701 706 710 715 721
733 730 728 723 724 719 711 708 709 709 713 713 716 718 722 724 725 723 725 710 708 705 693 681 683 686 692 694 695 694 699 700 699 699 700 701 700 701 705 709 711 714 720 724
727 724 720 714 711 713 714 713 713 713 716 719 720 720 718 721 723 724 717 715 708 692 682 684 688 693 698 700 702 705 705 705 704 705 705 706 707 708 712 715 717 720 723 726
724 723 721 715 717 715 718 717 718 715 720 722 722 718 715 711 706 711 709 695 687 685 692 691 694 699 704 705 708 709 708 708 709 709 709 710 712 714 717 719 721 725 726 727
720 719 719 720 718 716 717 717 713 713 719 718 713 711 702 693 696 695 686 687 691 697 696 700 701 702 705 709 711 712 711 711 712 713 714 715 717 720 722 723 726 728 729 729
Wind_Speed
27 19 21 19 19 35 23 4 3 3 12 3 2 8 9 13 6 4 5 5 11 13 17 17 16 18 10 8 6 10 1 4 11 13 6 2 2 7 7 4 9 7 8 16
30 29 27 30 35 32 8 3 2 5 1 6 5 5 16 17 13 11 8 9 11 12 15 9 14 15 8 5 6 4 2 4 7 10 11 10 9 6 12 13 14 17 11 10
26 26 25 28 30 23 7 3 3 3 3 3 4 4 9 11 11 12 11 9 12 8 8 8 3 12 8 6 7 9 4 7 7 9 7 3 7 11 12 11 8 11 13 18
20 20 22 20 21 18 12 2 2 6 3 1 1 9 5 15 8 3 5 5 11 13 9 13 11 6 1 7 9 5 1 4 6 11 13 13 15 18 20 19 18 16 18 20
19 18 18 19 18 16 6 4 2 2 6 11 6 4 6 12 12 10 12 9 12 8 8 7 3 13 12 6 11 9 9 4 3 6 10 12 17 23 23 22 22 21 21 22
20 19 19 19 17 10 4 3 1 2 2 8 8 6 6 5 9 4 6 8 5 12 4 7 4 9 5 8 11 13 10 6 7 15 11 10 14 19 22 21 20 19 18 20
18 17 15 15 16 8 4 2 3 3 5 7 10 12 11 12 8 6 3 9 4 3 2 6 3 2 2 4 5 6 6 8 6 10 8 12 15 19 19 21 21 20 21 18
16 15 13 12 14 8 6 1 3 2 3 10 6 8 12 13 14 13 9 3 9 8 5 3 2 2 3 8 14 14 13 10 6 5 8 13 23 17 14 16 17 18 20 20
14 14 13 12 12 8 9 5 7 3 1 3 7 12 11 11 9 6 9 10 7 4 3 2 6 6 7 6 6 15 17 13 10 10 12 9 17 13 13 15 13 17 15 11
13 13 12 12 15 11 5 3 8 3 3 5 3 6 10 10 9 8 9 8 4 3 3 5 5 8 9 9 8 8 8 10 14 12 11 11 21 21 19 14 9 11 13 15
13 12 12 12 14 13 6 5 8 3 2 2 4 3 4 4 6 6 8 5 5 4 6 5 5 6 6 9 11 15 13 11 9 11 13 16 7 15 16 9 8 13 15 11
14 13 12 12 12 10 7 8 6 7 2 4 2 1 5 3 4 3 10 5 6 5 5 6 5 7 7 11 11 14 15 12 10 13 10 11 13 16 2 5 14 12 10 19
14 12 12 11 10 7 9 10 5 6 2 2 3 5 10 9 7 4 2 7 6 8 5 4 4 7 7 9 11 14 16 15 11 13 17 18 19 16 15 11 8 15 16 16
16 15 13 11 9 6 10 6 3 3 1 1 3 7 9 12 12 11 10 11 8 7 5 5 5 7 6 9 12 12 10 12 14 12 17 16 19 17 11 14 14 16 18 15
16 15 13 10 8 7 4 2 1 1 3 1 2 8 10 11 13 15 14 13 9 6 7 6 9 9 9 9 11 14 11 15 11 13 15 14 17 14 18 18 18 17 19 19
18 17 13 11 9 5 1 2 7 5 1 1 2 3 7 14 19 15 14 12 9 8 6 7 9 16 9 6 12 20 19 19 19 18 19 19 21 19 20 20 18 17 16 17
18 18 15 12 11 7 1 3 4 8 4 1 3 3 5 9 11 8 6 12 5 6 7 8 11 10 9 12 17 20 20 19 17 16 14 17 20 15 15 16 17 19 22 22
20 20 14 12 9 5 4 7 8 7 4 1 3 3 5 9 4 3 2 2 0 3 4 5 9 8 9 9 19 19 20 20 20 20 19 19 18 19 20 18 14 16 19 13
22 21 15 8 3 2 1 10 8 4 1 2 4 5 2 3 3 3 2 3 4 4 5 9 5 5 9 13 15 17 16 14 15 15 11 15 17 17 15 11 18 17 17 12
19 15 4 3 5 6 6 3 2 2 3 3 4 4 3 5 4 4 3 4 4 3 6 3 6 13 22 21 19 15 13 13 7 8 17 14 14 16 14 17 14 7 3 12
9 3 3 2 11 8 3 3 4 5 4 5 5 9 7 3 4 2 4 2 3 3 1 5 3 4 11 17 19 19 20 17 14 18 17 13 19 16 13 10 3 8 12 9
6 2 5 6 3 3 3 3 3 5 3 4 4 0 1 1 2 4 4 3 3 3 7 3 3 1 3 3 4 8 2 15 16 19 15 11 3 2 3 8 9 12 15 17
1 1 3 3 4 4 4 5 3 3 3 2 3 2 1 2 1 2 2 3 4 5 3 3 2 4 6 7 7 7 10 9 4 6 8 8 9 15 13 10 14 18 16 16
2 5 4 4 4 4 4 5 1 2 2 2 2 1 3 2 3 2 3 3 3 3 4 4 4 7 7 6 8 8 8 8 9 9 9 9 10 12 14 14 15 17 15 14
3 3 3 5 4 1 2 4 1 1 4 3 1 3 3 3 3 3 4 2 4 4 3 3 4 6 4 4 6 5 6 5 6 5 7 8 10 11 11 12 13 15 16 14
2 3 3 4 3 3 2 2 4 3 3 2 2 3 3 5 4 5 6 4 3 3 2 3 5 3 4 4 4 4 4 4 4 5 6 8 8 9 10 13 13 11 13 14
3 3 1 4 5 3 1 4 6 2 5 3 3 4 7 3 3 4 4 2 3 1 3 3 4 2 4 4 3 3 4 4 5 6 6 8 10 11 10 8 10 10 11 14
Wind_Direction
128 139 127 136 141 158 149 102 94 323 154 162 60 194 201 221 175 202 252 301 283 236 238 217 217 219 146 174 160 202 76 303 231 219 181 76 178 200 239 233 227 225 261 262
149 152 158 165 167 170 152 101 95 2 272 181 195 220 220 234 205 209 211 222 250 243 239 221 225 109 149 169 204 37 149 237 242 249 264 207 222 256 321 263 240 254 262 268
148 152 155 163 165 167 118 109 119 41 29 342 137 156 198 187 233 232 200 221 255 251 240 230 205 123 150 161 90 68 359 262 268 260 265 30 296 290 284 285 289 286 264 285
139 147 156 159 158 158 135 91 200 153 154 208 201 161 189 187 173 261 229 218 243 219 219 233 221 194 141 184 130 135 241 276 301 278 287 304 291 276 266 259 265 257 271 273
132 138 151 162 161 158 113 134 167 134 158 145 185 182 185 207 194 179 201 192 210 230 237 256 289 254 179 181 155 200 212 223 201 266 263 263 263 268 272 273 275 280 282 285
129 134 141 154 152 149 81 326 88 253 140 176 178 170 159 163 173 302 168 203 244 232 277 239 70 36 155 244 199 214 200 206 237 262 253 247 254 253 258 269 270 267 264 265
123 129 134 136 146 106 112 131 238 204 197 189 195 182 147 154 148 147 147 140 157 108 213 64 38 340 266 252 248 276 272 226 247 271 282 254 256 266 270 273 274 277 278 269
118 118 119 133 150 130 129 133 298 174 249 190 125 168 162 163 171 164 150 206 144 173 126 61 14 268 274 248 235 229 226 238 232 242 239 271 279 276 291 294 293 288 289 293
116 114 115 121 141 113 96 41 337 356 340 127 185 168 176 153 153 137 138 99 104 109 112 171 204 211 216 206 202 212 223 218 228 240 256 253 261 284 295 309 289 297 303 356
128 121 118 120 128 132 113 72 28 30 29 30 176 161 167 160 153 156 160 155 152 197 162 191 220 238 267 238 218 252 234 206 220 233 247 266 273 282 274 275 299 342 340 328
134 129 126 124 124 113 96 70 34 24 103 136 339 35 194 176 198 172 150 142 191 170 197 209 212 234 244 255 251 254 238 229 235 230 247 255 255 268 267 349 348 324 319 315
142 140 132 128 128 109 81 93 43 10 61 86 44 349 320 341 335 274 161 182 172 174 211 223 238 243 249 255 252 238 246 257 259 249 255 245 260 294 297 249 305 322 326 301
152 147 142 140 142 109 65 104 85 62 41 165 184 223 233 248 252 287 277 202 227 205 203 260 283 265 280 258 253 257 257 258 254 261 263 280 282 285 291 316 303 306 317 311
162 157 151 144 132 111 71 90 62 40 52 239 175 166 215 221 221 228 235 276 314 310 236 235 244 251 269 276 289 281 278 289 287 292 284 279 281 287 313 307 323 312 314 302
168 163 159 155 150 129 90 102 153 61 319 0 301 319 238 209 206 214 221 232 248 250 247 238 236 248 266 271 281 269 267 266 267 271 276 284 290 302 301 308 307 302 300 296
176 167 167 169 172 151 128 15 189 173 284 336 272 304 241 213 215 219 222 227 231 242 244 250 250 259 254 259 251 255 256 255 263 273 284 288 287 290 292 286 290 301 297 290
188 176 177 179 184 180 332 34 67 160 142 171 275 252 181 196 194 204 223 238 234 235 244 240 253 256 259 255 257 262 268 281 278 272 284 280 262 261 268 280 290 296 289 282
190 188 184 170 181 208 198 188 145 116 84 294 267 260 170 167 163 180 207 209 43 219 234 234 233 248 239 251 250 261 261 258 258 261 263 268 275 276 275 273 275 287 280 272
139 134 138 121 192 191 115 141 156 187 249 252 234 242 272 326 168 124 166 227 232 206 228 232 231 228 227 247 255 255 262 256 255 258 307 310 301 288 277 273 262 264 234 197
135 137 171 182 203 186 172 97 148 142 181 224 250 253 226 193 178 192 203 195 235 233 218 206 230 246 254 258 258 260 258 266 259 262 253 257 255 251 245 247 244 259 283 114
169 162 189 148 150 171 197 181 210 175 208 214 234 233 255 232 222 246 214 206 233 248 195 183 234 253 240 254 249 251 251 248 238 246 267 239 210 225 215 217 117 65 95 94
149 157 156 144 195 209 215 209 201 205 244 186 200 160 142 139 188 215 204 238 224 265 155 222 251 334 83 42 15 351 235 213 231 241 254 275 229 285 16 88 85 90 99 102
132 203 190 208 188 204 215 186 214 225 180 220 153 160 163 183 231 236 275 251 243 143 231 253 281 127 63 38 22 38 33 15 309 308 313 335 55 55 85 88 102 106 105 116
226 195 195 233 169 232 211 253 350 70 72 71 60 169 185 183 188 256 263 270 304 265 236 247 67 64 65 43 28 42 29 25 42 51 57 68 75 79 82 96 119 119 122 126
234 200 227 216 241 279 345 339 348 46 136 133 241 256 228 184 197 205 252 247 245 235 286 41 59 79 98 90 89 74 54 39 46 48 71 82 88 89 92 106 122 120 125 127
231 231 247 247 302 250 221 212 249 267 113 71 253 266 238 210 206 180 211 238 241 22 49 43 94 86 78 90 84 81 75 64 62 67 72 84 88 98 107 111 113 126 131 124
212 234 242 280 290 286 333 223 233 214 157 206 224 229 220 204 221 209 208 256 27 59 20 19 22 115 130 128 133 117 111 105 107 108 96 96 114 127 126 118 121 124 125 125